Newport News, VA

1:54 AM EST on February 07, 2016 (GMT -0500)
Felker Army Air Field

Weather History for KFAF - October, 2011

Change the Weather History Date:

Friday, October 28, 2011

  Actual Average Record
Temperature  
Mean Temperature 50 °F -  
Max Temperature 55 °F 65 °F 81 °F (2010)
Min Temperature 44 °F 47 °F 40 °F (2008)
Degree Days  
Heating Degree Days 16    
Moisture  
Dew Point 41 °F    
Average Humidity 81    
Maximum Humidity 94    
Minimum Humidity 63    
Precipitation  
Precipitation 0.07 in - - ()
Sea Level Pressure  
Sea Level Pressure 30.15 in    
Wind  
Wind Speed 9 mph (NNE)    
Max Wind Speed 17 mph    
Max Gust Speed 23 mph    
Visibility 10 miles    
Events Rain    
Averages and records for this station are not official NWS values.
T = Trace of Precipitation, MM = Missing Value Source: NWS Daily Summary

Daily Weather History Graph

Daily Weather History Graph

Search for Another Location

Airport or City:

Trip Planner

Search our weather history database for the weather conditions in past years. The results will help you decide how hot, cold, wet, or windy it might be!

Date:

Astronomy

Oct. 28, 2011 Rise Set
Actual Time 7:26 AM EDT 6:13 PM EDT
Civil Twilight 6:59 AM EDT 6:40 PM EDT
Nautical Twilight 6:29 AM EDT 7:10 PM EDT
Astronomical Twilight 5:58 AM EDT 7:40 PM EDT
Moon 9:35 AM EDT (10/28) 7:38 PM EDT (10/28)
Length of Visible Light 11h 40m
Length of Day
10h 47m
Waxing Crescent, 5% of the Moon is Illuminated
Oct 28
Waxing Crescent
Nov 2
First Quarter
Nov 10
Full
Nov 18
Last Quarter
Nov 25
New

Hourly Weather History & Observations

Time (EDT) Temp. Windchill Dew Point Humidity Pressure Visibility Wind Dir Wind Speed Gust Speed Precip Events Conditions
12:55 AM 55.2 °F - 46.0 °F 71% 29.99 in 10.0 mi North 11.5 mph 19.6 mph N/A   Overcast
1:55 AM 53.2 °F - 40.8 °F 63% 30.01 in 10.0 mi North 17.3 mph 23.0 mph N/A   Overcast
2:55 AM 51.6 °F - 40.5 °F 66% 30.06 in 10.0 mi NNW 11.5 mph 20.7 mph N/A   Overcast
3:55 AM 50.0 °F - 39.4 °F 67% 30.07 in 10.0 mi NNE 13.8 mph 20.7 mph N/A   Overcast
4:55 AM 48.4 °F - 37.2 °F 65% 30.09 in 10.0 mi NNE 11.5 mph - N/A   Overcast
5:55 AM 47.8 °F - 36.7 °F 65% 30.12 in 10.0 mi NNE 8.1 mph - N/A   Overcast
5:56 AM 48.2 °F - 37.4 °F 66% 30.12 in 10.0 mi NNE 8.1 mph - N/A   Overcast
6:55 AM 46.6 °F - 38.5 °F 73% 30.13 in 10.0 mi NNE 6.9 mph - N/A   Overcast
7:38 AM 46.4 °F 42.9 °F 37.4 °F 71% 30.15 in 10.0 mi NNE 6.9 mph - N/A   Overcast
7:55 AM 46.8 °F - 38.7 °F 73% 30.16 in 10.0 mi North 8.1 mph - 0.01 in   Overcast
8:55 AM 46.6 °F - 38.7 °F 74% 30.19 in 10.0 mi North 8.1 mph - N/A   Overcast
9:55 AM 46.8 °F - 37.9 °F 71% 30.19 in 10.0 mi NNE 6.9 mph - N/A   Overcast
10:01 AM 46.4 °F 43.5 °F 37.4 °F 71% 30.19 in 10.0 mi Variable 5.8 mph - N/A   Overcast
10:55 AM 46.8 °F - 38.8 °F 74% 30.21 in 10.0 mi North 11.5 mph - N/A   Overcast
11:02 AM 46.4 °F 43.5 °F 39.2 °F 76% 30.20 in 10.0 mi NNE 5.8 mph 18.4 mph N/A   Overcast
11:03 AM 46.4 °F 43.5 °F 39.2 °F 76% 30.21 in 10.0 mi NE 5.8 mph 18.4 mph N/A   Overcast
11:08 AM 46.4 °F 43.5 °F 39.2 °F 76% 30.20 in 10.0 mi Variable 5.8 mph - N/A   Overcast
11:55 AM 46.6 °F - 39.4 °F 76% 30.21 in 10.0 mi Variable 5.8 mph - N/A   Overcast
12:05 PM 46.4 °F 42.9 °F 39.2 °F 76% 30.21 in 6.0 mi North 6.9 mph - N/A Rain Light Rain
12:55 PM 46.6 °F - 40.8 °F 80% 30.19 in 10.0 mi North 5.8 mph - 0.01 in   Overcast
1:02 PM 46.4 °F 44.3 °F 41.0 °F 81% 30.19 in 10.0 mi Variable 4.6 mph - N/A   Overcast
1:09 PM 46.4 °F 44.3 °F 41.0 °F 81% 30.19 in 10.0 mi North 4.6 mph - N/A Rain Light Rain
1:19 PM 46.4 °F 43.5 °F 41.0 °F 81% 30.18 in 10.0 mi North 5.8 mph - N/A   Overcast
1:24 PM 46.4 °F 42.9 °F 41.0 °F 81% 30.18 in 10.0 mi NNE 6.9 mph - N/A   Overcast
1:55 PM 46.6 °F - 41.2 °F 81% 30.18 in 10.0 mi NNE 6.9 mph - 0.01 in   Overcast
2:07 PM 46.4 °F 41.9 °F 41.0 °F 81% 30.17 in 10.0 mi North 9.2 mph - N/A   Overcast
2:09 PM 46.4 °F 41.5 °F 41.0 °F 81% 30.17 in 10.0 mi North 10.4 mph - N/A   Overcast
2:21 PM 46.4 °F 42.9 °F 41.0 °F 81% 30.18 in 10.0 mi North 6.9 mph - N/A   Overcast
2:55 PM 46.0 °F 41.9 °F 40.1 °F 80% 30.18 in 10.0 mi North 8.1 mph - N/A   Overcast
3:35 PM 46.4 °F 42.4 °F 42.8 °F 87% 30.17 in 10.0 mi North 8.1 mph - N/A Rain Light Rain
3:55 PM 44.8 °F 40.4 °F 41.5 °F 88% 30.17 in 9.0 mi North 8.1 mph - 0.02 in Rain Light Rain
3:58 PM 44.6 °F 40.2 °F 41.0 °F 87% 30.17 in 10.0 mi NNE 8.1 mph - N/A   Overcast
4:43 PM 44.6 °F 40.2 °F 41.0 °F 87% 30.17 in 10.0 mi North 8.1 mph - N/A   Overcast
4:55 PM 44.8 °F 40.4 °F 41.4 °F 88% 30.18 in 10.0 mi North 8.1 mph - 0.00 in   Overcast
5:06 PM 44.6 °F 39.7 °F 41.0 °F 87% 30.17 in 10.0 mi North 9.2 mph - N/A   Overcast
5:12 PM 44.6 °F 40.2 °F 41.0 °F 87% 30.17 in 10.0 mi North 8.1 mph - N/A   Overcast
5:24 PM 44.6 °F 39.7 °F 41.0 °F 87% 30.17 in 10.0 mi North 9.2 mph - N/A   Overcast
5:35 PM 44.6 °F 39.7 °F 41.0 °F 87% 30.16 in 10.0 mi North 9.2 mph - N/A   Overcast
5:45 PM 44.6 °F 39.2 °F 41.0 °F 87% 30.15 in 10.0 mi North 10.4 mph - N/A   Overcast
5:51 PM 44.6 °F 41.4 °F 41.0 °F 87% 30.15 in 10.0 mi Variable 5.8 mph - N/A   Mostly Cloudy
5:53 PM 44.6 °F 40.2 °F 41.0 °F 87% 30.15 in 10.0 mi North 8.1 mph - N/A   Mostly Cloudy
5:55 PM 44.4 °F 41.2 °F 41.2 °F 88% 30.15 in 10.0 mi NNE 5.8 mph - 0.01 in   Mostly Cloudy
6:03 PM 44.6 °F 40.7 °F 41.0 °F 87% 30.15 in 10.0 mi NNE 6.9 mph - N/A   Mostly Cloudy
6:16 PM 44.6 °F 41.4 °F 41.0 °F 87% 30.15 in 10.0 mi NNE 5.8 mph - N/A   Mostly Cloudy
6:28 PM 44.6 °F 41.4 °F 41.0 °F 87% 30.16 in 10.0 mi NNE 5.8 mph - N/A   Overcast
6:55 PM 45.0 °F 40.6 °F 42.3 °F 90% 30.16 in 10.0 mi North 8.1 mph - 0.00 in   Overcast
7:55 PM 45.9 °F 42.9 °F 43.2 °F 90% 30.14 in 10.0 mi North 5.8 mph - N/A   Overcast
8:55 PM 47.1 °F - 44.6 °F 91% 30.13 in 10.0 mi Calm Calm - N/A   Overcast
9:55 PM 50.4 °F - 46.4 °F 86% 30.12 in 10.0 mi NE 4.6 mph - N/A   Overcast
10:46 PM 50.0 °F - 46.4 °F 87% 30.10 in 10.0 mi NE 9.2 mph 16.1 mph N/A   Overcast
10:49 PM 50.0 °F - 46.4 °F 87% 30.10 in 10.0 mi NE 10.4 mph - N/A   Overcast
10:52 PM 50.0 °F - 46.4 °F 87% 30.10 in 10.0 mi NE 9.2 mph - N/A   Overcast
10:53 PM 50.0 °F - 46.4 °F 87% 30.10 in 10.0 mi NE 9.2 mph - N/A   Overcast
10:54 PM 50.0 °F - 46.4 °F 87% 30.10 in 10.0 mi NE 10.4 mph - N/A   Overcast
10:55 PM 50.4 °F - 47.3 °F 89% 30.10 in 10.0 mi NE 8.1 mph - 0.01 in   Overcast
11:12 PM 50.0 °F - 48.2 °F 94% 30.09 in 8.0 mi NE 6.9 mph - N/A   Overcast
11:55 PM 50.4 °F - 48.6 °F 94% 30.06 in 7.0 mi ENE 8.1 mph - N/A   Overcast